Terug naar catalogus

SL-16 DEB

ActiefLEO
NORAD 18410·DEBRIS·🇷🇺 Russia

Gelanceerd May 13, 1987 vanaf Baikonur Cosmodrome

Loading…

Volgende Passages (komende 24 uur)

TLE

VersSource: Space-Track

Epoch: Sep 14, 2026, 09:07 UTC

1 18410U 87041C   26257.38035223  .00000064  00000-0  98910-4 0  9993
2 18410  70.9852 303.1948 0203918 287.2355  83.6324 13.74142928971183

Volg SL-16 DEB in realtime met AllMySat

Download on the App Store